Miscellaneous Local Product
Issued by NWS Hastings, NE

Home | Current Version | Previous Version | Graphics & Text | Print | Product List | Glossary On
Versions: 1 2 3 4 5 6 7 8 9 10 11 12 13 14 15 16 17 18 19 20 21 22 23 24 25 26 27 28 29 30 31 32 33 34 35 36 37 38 39 40 41 42 43 44 45 46 47 48 49 50
000
AXUS43 KGID 250302
MISGRI

GID CWA HOURLY WEATHER ROUNDUP
NATIONAL WEATHER SERVICE HASTINGS NE
1000 PM CDT WED AUG 24 2016

NOTE: "FAIR" INDICATES FEW OR NO CLOUDS BELOW 12,000 FEET WITH NO
SIGNIFICANT WEATHER AND/OR OBSTRUCTIONS TO VISIBILITY.

...SOUTH CENTRAL NEBRASKA...

CITY           SKY/WX    TMP DP  RH WIND       PRES   REMARKS
GRAND ISLAND   PTCLDY    60  54  80 CALM      30.11S
HASTINGS       PTCLDY    60  55  83 CALM      30.13R
KEARNEY        CLOUDY    64  55  72 E5        30.12S
ORD            LGT RAIN  65  58  78 CALM      30.12R
YORK           CLEAR     59  57  94 N7        30.10S
AURORA         CLEAR     59  57  94 N3        30.10F
LEXINGTON      CLOUDY    66  51  58 SE5       30.14R
HOLDREGE       CLOUDY    62  56  80 CALM      30.13S
HEBRON         CLOUDY    63  60  93 CALM      30.08S

...NEBRASKA PANHANDLE...

CITY           SKY/WX    TMP DP  RH WIND       PRES   REMARKS
CHADRON        LGT RAIN  59  52  77 W10       30.26R
ALLIANCE       MOCLDY    59  48  67 SE8       30.20R
SCOTTSBLUFF    CLOUDY    63  46  54 N13       30.22R
SIDNEY         PTCLDY    60  42  51 E6        30.24R

...WESTERN AND NORTH CENTRAL NEBRASKA...

CITY           SKY/WX    TMP DP  RH WIND       PRES   REMARKS
VALENTINE      CLOUDY    61  50  67 NW3       30.17R
AINSWORTH      CLOUDY    62  56  81 CALM      30.17R
ONEILL         CLOUDY    64  56  76 CALM      30.15R
BROKEN BOW     CLOUDY    60  56  86 N5        30.14R
IMPERIAL       PTCLDY    64  42  44 S6        30.19R
NORTH PLATTE   CLOUDY    63  51  65 CALM      30.17R
MCCOOK         CLOUDY    65  49  56 E7        30.14R

...EASTERN NEBRASKA...

CITY           SKY/WX    TMP DP  RH WIND       PRES   REMARKS
NORFOLK        CLEAR     57  55  93 W3        30.11R
SO SIOUX CITY  PTCLDY    64  59  83 NW6       30.07R
TEKAMAH        PTCLDY    63  60  90 CALM      30.07R
COLUMBUS       CLEAR     57  48  72 CALM      30.10S
ALBION         CLOUDY    60  56  89 CALM      30.12R
OMAHA EPPLEY   CLOUDY    68  62  81 NW8       30.06R
OFFUTT AFB     CLOUDY    70  62  76 CALM      30.06R
MILLARD        CLOUDY    69  61  76 NW5       30.07R
LINCOLN        PTCLDY    66  62  87 N6        30.07S
NEBRASKA CITY  CLOUDY    68  68 100 NW5       30.07R
BEATRICE       PTCLDY    65  63  94 N7        30.05F
FALLS CITY     CLOUDY    69  69 100 SE3       30.02S

...NORTHERN KANSAS...

CITY           SKY/WX    TMP DP  RH WIND       PRES   REMARKS
GOODLAND       CLOUDY    58  48  69 NE6       30.18R
HILL CITY      MOCLDY    62  55  77 N7        30.13R
NORTON         CLOUDY    64  52  63 NE6       30.12S
SMITH CENTER   CLEAR     61  55  82 CALM      30.11R
BELOIT         CLEAR     59  55  88 N6        30.06S
HAYS           CLOUDY    64  54  68 NE9       30.10R
RUSSELL        MOCLDY    63  59  87 NE10      30.08R
CONCORDIA      CLOUDY    62  58  86 N5        30.08R
SALINA         CLOUDY    70  63  78 N10       30.05R
TOPEKA         CLOUDY    73  70  90 CALM      30.02R



USA.gov is the U.S. government's official web portal to all federal, state and local government web resources and services.